This demonstration page uses our WeatherBlox Daily Observations layout. Learn more.

Left ArrowRight Arrow

47.50024, -111.30081

Hourly Observations for April 17, 2020

Temp ( °F °C ) Dew Point ( °F °C ) Humidity (%) Winds ( mph kmh ) Pressure ( in mb ) Visibility ( mi km ) Precip ( " mm )
12:53 am 00:53 Clear 31 -0.6 17 -8.3 56 56 SSW 15 24 30.09 1019 10 16 0.00 0.00
1:53 am 01:53 Clear 31 -0.6 16 -8.9 54 54 SSW 14 22 30.07 1018 10 16 0.00 0.00
2:53 am 02:53 Clear 30 -1.1 16 -8.9 56 56 SSW 15 24 30.04 1017 10 16 0.00 0.00
3:53 am 03:53 Clear 30 -1.1 16 -8.9 56 56 SSW 15 24 30.01 1016 10 16 0.00 0.00
4:53 am 04:53 Clear 30 -1.1 16 -8.9 56 56 SSW 15 24 30.00 1016 10 16 0.00 0.00
5:53 am 05:53 Clear 33 0.6 16 -8.9 49 49 SW 17 28 29.98 1015 10 16 0.00 0.00
6:53 am 06:53 Sunny 33 0.6 16 -8.9 49 49 SW 17 28 29.96 1015 10 16 0.00 0.00
7:53 am 07:53 Sunny 37 2.8 16 -8.9 42 42 SSW 18 30 29.96 1014 10 16 0.00 0.00
8:53 am 08:53 Sunny 42 5.6 17 -8.3 36 36 SW 20 31 29.94 1014 10 16 0.00 0.00
9:53 am 09:53 Sunny 46 7.8 18 -7.8 32 32 WSW 23 37 29.92 1013 10 16 0.00 0.00
10:53 am 10:53 Sunny 50 10 18 -7.8 28 28 SW 24 39 29.90 1013 10 16 0.00 0.00
11:53 am 11:53 Sunny 54 12.2 20 -6.7 26 26 WSW 25 41 29.88 1012 10 16 0.00 0.00
12:53 pm 12:53 Sunny 57 13.9 20 -6.7 24 24 SW 25 41 29.85 1011 10 16 0.00 0.00
1:53 pm 13:53 Sunny 55 12.8 19 -7.2 24 24 WSW 29 46 29.83 1010 10 16 0.00 0.00
2:53 pm 14:53 Sunny 58 14.4 20 -6.7 23 23 SW 26 43 29.81 1009 10 16 0.00 0.00
3:53 pm 15:53 Sunny 58 14.4 20 -6.7 23 23 SW 25 41 29.80 1009 10 16 0.00 0.00
4:53 pm 16:53 Sunny 58 14.4 19 -7.2 22 22 WSW 22 35 29.79 1009 10 16 0.00 0.00
5:53 pm 17:53 Sunny 58 14.4 17 -8.3 20 20 W 22 35 29.78 1009 10 16 0.00 0.00
6:53 pm 18:53 Sunny 55 12.8 16 -8.9 21 21 WSW 16 26 29.80 1009 10 16 0.00 0.00
7:53 pm 19:53 Sunny 49 9.4 20 -6.7 32 32 WSW 12 19 29.80 1009 10 16 0.00 0.00
8:53 pm 20:53 Mostly Cloudy 43 6.1 21 -6.1 42 42 SW 10 17 29.80 1009 10 16 0.00 0.00
9:53 pm 21:53 Cloudy 45 7.2 22 -5.6 40 40 SW 7 11 29.80 1009 10 16 0.00 0.00
10:53 pm 22:53 Cloudy 45 7.2 22 -5.6 40 40 WNW 8 13 29.79 1009 10 16 0.00 0.00
11:53 pm 23:53 Cloudy 44 6.7 22 -5.6 41 41 Calm 29.79 1009 10 16 0.00 0.00

Powered by AerisWeather